User: anonymous   Login
Location: Columbia
(38.9520°N, 92.3340°W)
Time: 18:28:00
(UTC-05:00)
Language:

Meteor 1-4 Rocket - Orbit

View from above orbital plane
View from above orbital plane
View from above satellite
View from above satellite

Ground track
Ground track

The orbit data is extracted from the following two-line orbital elements,

1 04394U 70037B   16145.44043802  .00002356  00000-0  85819-4 0  9990
2 04394  81.2425 110.8623 0042431  12.3206 347.9055 15.26893421505423
Epoch (UTC): 24 May 2016 10:34:13
Eccentricity: 0.0042431
inclination: 81.2425°
perigee height: 456 km
apogee height: 514 km
right ascension of ascending node: 110.8623°
argument of perigee: 12.3206°
revolutions per day: 15.26893421
mean anomaly at epoch: 347.9055°
orbit number at epoch: 50542

The dashed part of the orbit path shows where the satellite is in the earth's shadow,  

DLR